WV5G-13 Weather Reports


Display with metric or nautical units.
time (UTC)temp
F
wind
direction
speed
MPH
gust
MPH
rain 1hr
in
rain 24hr
in
rain mn
in
humidity
%
barometer
mb
20260831124807 69 163 1.0 3.0 0.00 0.00 0.00 62 1016.0
20260831124303 68 216 3.0 4.0 0.00 0.00 0.00 63 1015.9
20260831123758 68 182 3.0 3.0 0.00 0.00 0.00 63 1016.0
20260831123257 68 18 0.0 2.0 0.00 0.00 0.00 63 1015.9
20260831122752 68 61 0.0 0.0 0.00 0.00 0.00 63 1015.8
20260831122248 68 354 0.0 1.0 0.00 0.00 0.00 62 1015.6
20260831121747 68 55 0.0 1.0 0.00 0.00 0.00 61 1015.5
20260831121243 69 322 0.0 2.0 0.00 0.00 0.00 61 1015.6
20260831120738 68 190 0.0 2.0 0.00 0.00 0.00 61 1015.2
20260831120233 68 262 2.0 2.0 0.00 0.00 0.00 62 1015.5
20260831115728 68 286 2.0 3.0 0.00 0.00 0.00 63 1015.0
20260831115225 68 138 2.0 2.0 0.00 0.00 0.00 62 1014.9
20260831114724 68 101 2.0 2.0 0.00 0.00 0.00 61 1015.1
20260831114223 69 330 0.0 2.0 0.00 0.00 0.00 60 1015.0
20260831113719 69 147 0.0 3.0 0.00 0.00 0.00 60 1014.9
20260831113213 68 75 1.0 3.0 0.00 0.00 0.00 61 1014.9
20260831112713 69 66 3.0 3.0 0.00 0.00 0.00 61 1014.7
20260831112208 69 50 0.0 2.0 0.00 0.00 0.00 60 1014.6
20260831111704 69 129 1.0 3.0 0.00 0.00 0.00 59 1014.8
20260831111200 70 145 2.0 3.0 0.00 0.00 0.00 58 1014.6
20260831110655 70 197 1.0 4.0 0.00 0.00 0.00 57 1014.6
20260831110150 70 121 3.0 5.0 0.00 0.00 0.00 56 1014.5
20260831105649 70 159 4.0 5.0 0.00 0.00 0.00 56 1014.5
20260831105144 70 152 5.0 7.0 0.00 0.00 0.00 56 1014.6
20260831104639 70 148 4.0 5.0 0.00 0.00 0.00 56 1014.8
20260831104136 71 146 4.0 6.0 0.00 0.00 0.00 55 1014.5
20260831103631 71 163 4.0 6.0 0.00 0.00 0.00 55 1014.6
20260831103126 71 172 2.0 6.0 0.00 0.00 0.00 55 1014.6
20260831102621 71 180 5.0 5.0 0.00 0.00 0.00 54 1014.8
20260831102116 72 164 3.0 7.0 0.00 0.00 0.00 53 1014.7
20260831101616 73 159 7.0 9.0 0.00 0.00 0.00 52 1014.7
20260831101112 72 180 5.0 7.0 0.00 0.00 0.00 52 1014.6
20260831100608 73 176 5.0 5.0 0.00 0.00 0.00 52 1014.6
20260831100104 74 174 3.0 5.0 0.00 0.00 0.00 50 1014.6
20260831095602 75 186 4.0 7.0 0.00 0.00 0.00 47 1014.6
20260831095057 75 199 5.0 11.0 0.00 0.00 0.00 48 1014.7
20260831094552 74 197 8.0 14.0 0.00 0.00 0.00 49 1014.7
20260831094048 73 212 7.0 10.0 0.00 0.00 0.00 50 1014.6
20260831093543 75 202 5.0 7.0 0.00 0.00 0.00 48 1014.8
20260831093040 74 196 6.0 11.0 0.00 0.00 0.00 48 1014.7
20260831092535 72 214 6.0 7.0 0.00 0.00 0.00 52 1014.8
20260831092031 71 210 3.0 4.0 0.00 0.00 0.00 53 1015.0
20260831091531 71 122 3.0 4.0 0.00 0.00 0.00 55 1014.9
20260831091026 70 93 1.0 2.0 0.00 0.00 0.00 55 1014.9
20260831090521 71 284 4.0 5.0 0.00 0.00 0.00 55 1014.8
20260831090018 72 281 5.0 6.0 0.00 0.00 0.00 53 1014.9
20260831085512 72 262 4.0 5.0 0.00 0.00 0.00 51 1014.9
20260831085007 73 276 4.0 5.0 0.00 0.00 0.00 51 1014.6
20260831084503 73 238 4.0 5.0 0.00 0.00 0.00 50 1014.8
20260831083959 72 226 2.0 5.0 0.00 0.00 0.00 50 1014.6
20260831083454 72 248 2.0 4.0 0.00 0.00 0.00 51 1014.3
20260831082953 73 191 2.0 6.0 0.00 0.00 0.00 50 1014.3
20260831082448 73 238 3.0 5.0 0.00 0.00 0.00 49 1014.3
20260831081943 73 289 1.0 6.0 0.00 0.00 0.00 49 1014.2
20260831081439 73 221 3.0 5.0 0.00 0.00 0.00 49 1014.5
20260831080934 73 196 1.0 4.0 0.00 0.00 0.00 49 1014.5
20260831080429 73 178 2.0 5.0 0.00 0.00 0.00 49 1014.3
20260831075925 73 236 3.0 5.0 0.00 0.00 0.00 49 1014.3
20260831075420 72 221 0.0 4.0 0.00 0.00 0.00 50 1014.6
20260831074915 73 101 3.0 4.0 0.00 0.00 0.00 49 1014.6
20260831074409 74 94 2.0 5.0 0.00 0.00 0.00 48 1014.8
20260831073904 74 105 2.0 7.0 0.00 0.00 0.00 47 1014.6
20260831073403 74 127 4.0 6.0 0.00 0.00 0.00 47 1014.8
20260831072858 74 116 2.0 5.0 0.00 0.00 0.00 47 1014.3
20260831072354 75 158 1.0 4.0 0.00 0.00 0.00 46 1014.5
20260831071849 75 181 4.0 4.0 0.00 0.00 0.00 45 1014.5
20260831071349 75 188 2.0 5.0 0.00 0.00 0.00 45 1014.5
20260831070843 75 157 5.0 5.0 0.00 0.00 0.00 44 1014.2
20260831070343 76 143 3.0 6.0 0.00 0.00 0.00 44 1014.7
20260831065842 76 143 5.0 9.0 0.00 0.00 0.00 44 1014.2
20260831065340 76 171 4.0 8.0 0.00 0.00 0.00 43 1014.5
20260831064835 76 150 6.0 8.0 0.00 0.00 0.00 43 1014.3
20260831064330 76 142 4.0 6.0 0.00 0.00 0.00 43 1014.3
20260831063826 77 142 5.0 9.0 0.00 0.00 0.00 42 1014.6
20260831063326 77 184 6.0 9.0 0.00 0.00 0.00 42 1014.3
20260831062821 78 178 8.0 9.0 0.00 0.00 0.00 41 1014.3
20260831062316 77 193 4.0 8.0 0.00 0.00 0.00 41 1014.3
20260831061815 77 157 9.0 11.0 0.00 0.00 0.00 41 1014.3
20260831061309 77 141 3.0 9.0 0.00 0.00 0.00 41 1014.6
20260831060805 77 113 2.0 8.0 0.00 0.00 0.00 41 1014.3
20260831060305 78 153 6.0 7.0 0.00 0.00 0.00 41 1014.2
20260831055804 78 140 8.0 9.0 0.00 0.00 0.00 41 1014.2
20260831055259 78 160 4.0 11.0 0.00 0.00 0.00 40 1014.0
20260831054754 78 138 5.0 9.0 0.00 0.00 0.00 40 1014.1
20260831054249 78 160 7.0 9.0 0.00 0.00 0.00 40 1014.1
20260831053748 79 197 5.0 9.0 0.00 0.00 0.00 40 1014.1
20260831053247 79 168 9.0 10.0 0.00 0.00 0.00 39 1013.9
20260831052742 79 176 4.0 9.0 0.00 0.00 0.00 39 1014.0
20260831052241 79 149 7.0 9.0 0.00 0.00 0.00 39 1014.0
20260831051739 79 135 4.0 7.0 0.00 0.00 0.00 39 1013.9
20260831051238 79 163 3.0 9.0 0.00 0.00 0.00 39 1014.0
20260831050733 79 178 3.0 8.0 0.00 0.00 0.00 39 1013.9
20260831050232 79 174 4.0 8.0 0.00 0.00 0.00 39 1013.8
20260831045726 80 161 6.0 9.0 0.00 0.00 0.00 39 1013.7
20260831045221 80 180 6.0 8.0 0.00 0.00 0.00 39 1013.6
20260831044716 80 177 5.0 8.0 0.00 0.00 0.00 38 1013.7
20260831044211 80 180 3.0 9.0 0.00 0.00 0.00 38 1014.0
20260831043707 81 170 8.0 11.0 0.00 0.00 0.00 37 1013.8
20260831043202 81 177 8.0 12.0 0.00 0.00 0.00 37 1013.7
20260831042701 81 162 3.0 10.0 0.00 0.00 0.00 37 1013.9
20260831042156 81 188 4.0 10.0 0.00 0.00 0.00 37 1013.9
20260831041651 82 191 5.0 9.0 0.00 0.00 0.00 37 1013.9
20260831041150 82 172 6.0 10.0 0.00 0.00 0.00 36 1013.9
20260831040646 82 189 8.0 9.0 0.00 0.00 0.00 36 1013.7
20260831040144 82 178 7.0 10.0 0.00 0.00 0.00 36 1013.8
20260831035643 83 195 8.0 11.0 0.00 0.00 0.00 35 1013.6
20260831035138 83 168 7.0 10.0 0.00 0.00 0.00 35 1013.6
20260831034637 83 166 7.0 11.0 0.00 0.00 0.00 35 1013.7
20260831034132 84 168 5.0 11.0 0.00 0.00 0.00 35 1013.7
20260831033627 84 176 6.0 13.0 0.00 0.00 0.00 34 1013.8
20260831033123 84 198 4.0 12.0 0.00 0.00 0.00 34 1013.6
20260831032617 85 170 9.0 14.0 0.00 0.00 0.00 34 1013.7
20260831032112 85 170 7.0 10.0 0.00 0.00 0.00 34 1013.5
20260831031607 85 155 9.0 11.0 0.00 0.00 0.00 34 1013.5
20260831031106 85 159 10.0 12.0 0.00 0.00 0.00 33 1013.2
20260831030605 86 192 6.0 13.0 0.00 0.00 0.00 33 1013.3
20260831030104 86 181 9.0 11.0 0.00 0.00 0.00 33 1013.2
20260831025603 86 158 7.0 14.0 0.00 0.00 0.00 32 1013.0
20260831025058 86 147 7.0 11.0 0.00 0.00 0.00 33 1012.9
20260831024554 86 169 4.0 10.0 0.00 0.00 0.00 32 1012.9
20260831024052 87 159 8.0 13.0 0.00 0.00 0.00 32 1012.8
20260831023550 87 156 5.0 12.0 0.00 0.00 0.00 32 1012.9
20260831023045 87 170 9.0 11.0 0.00 0.00 0.00 32 1012.6
20260831022544 87 159 4.0 12.0 0.00 0.00 0.00 32 1012.5
20260831022035 87 171 6.0 12.0 0.00 0.00 0.00 32 1012.8
20260831021533 87 163 4.0 13.0 0.00 0.00 0.00 32 1012.5
20260831021030 87 180 11.0 14.0 0.00 0.00 0.00 31 1012.6
20260831020525 88 157 8.0 12.0 0.00 0.00 0.00 31 1012.5
20260831020020 88 160 9.0 12.0 0.00 0.00 0.00 31 1012.3
20260831015515 88 172 8.0 13.0 0.00 0.00 0.00 31 1012.5
20260831015010 89 152 9.0 13.0 0.00 0.00 0.00 30 1012.3
20260831014504 89 153 5.0 11.0 0.00 0.00 0.00 30 1012.2
20260831014001 89 153 7.0 11.0 0.00 0.00 0.00 29 1012.3
20260831013456 89 174 8.0 11.0 0.00 0.00 0.00 29 1012.2
20260831012955 90 172 5.0 18.0 0.00 0.00 0.00 29 1012.2
20260831012445 90 169 9.0 15.0 0.00 0.00 0.00 28 1012.0
20260831011944 90 168 6.0 14.0 0.00 0.00 0.00 28 1012.0
20260831011439 91 189 6.0 14.0 0.00 0.00 0.00 28 1012.0
20260831010936 91 182 7.0 12.0 0.00 0.00 0.00 28 1012.1
20260831010435 91 181 9.0 10.0 0.00 0.00 0.00 27 1012.2
20260831005931 92 158 11.0 12.0 0.00 0.00 0.00 27 1012.0
20260831005427 92 161 7.0 13.0 0.00 0.00 0.00 27 1012.0
20260831004926 93 189 4.0 12.0 0.00 0.00 0.00 27 1011.7
20260831004423 93 185 7.0 14.0 0.00 0.00 0.00 26 1011.8
20260831003918 94 160 7.0 13.0 0.00 0.00 0.00 26 1012.0
20260831003414 94 186 6.0 15.0 0.00 0.00 0.00 26 1011.8
20260831002908 94 188 13.0 15.0 0.00 0.00 0.00 25 1011.9
20260831002407 95 184 11.0 17.0 0.00 0.00 0.00 25 1011.9
20260831001903 95 150 6.0 12.0 0.00 0.00 0.00 25 1011.7
20260831001357 96 172 9.0 11.0 0.00 0.00 0.00 25 1011.7
20260831000855 96 172 9.0 11.0 0.00 0.00 0.00 25 1011.7
20260831000350 96 175 9.0 12.0 0.00 0.00 0.00 24 1011.7
20260830235848 96 161 7.0 14.0 0.00 0.00 0.00 24 1011.8
20260830235343 96 175 12.0 16.0 0.00 0.00 0.00 24 1011.9
20260830234839 97 166 11.0 12.0 0.00 0.00 0.00 24 1011.9
20260830234334 97 180 6.0 10.0 0.00 0.00 0.00 23 1011.9
20260830233830 97 180 6.0 10.0 0.00 0.00 0.00 23 1011.9
20260830233325 97 173 9.0 11.0 0.00 0.00 0.00 23 1012.0
20260830232821 97 163 9.0 14.0 0.00 0.00 0.00 23 1011.7
20260830232316 98 174 9.0 13.0 0.00 0.00 0.00 23 1012.0
20260830231812 98 198 8.0 11.0 0.00 0.00 0.00 24 1011.8
20260830231307 98 174 7.0 14.0 0.00 0.00 0.00 23 1011.9
20260830230801 97 201 10.0 11.0 0.00 0.00 0.00 23 1011.9
20260830230257 98 200 13.0 14.0 0.00 0.00 0.00 23 1011.7
20260830225756 98 203 11.0 12.0 0.00 0.00 0.00 23 1011.9
20260830225251 98 189 12.0 16.0 0.00 0.00 0.00 22 1011.7
20260830224750 98 173 9.0 12.0 0.00 0.00 0.00 23 1011.9
20260830224246 98 192 14.0 16.0 0.00 0.00 0.00 22 1012.0
20260830223743 98 192 14.0 16.0 0.00 0.00 0.00 22 1011.8
20260830223238 98 170 11.0 18.0 0.00 0.00 0.00 23 1011.9
20260830222732 98 170 11.0 18.0 0.00 0.00 0.00 23 1011.9
20260830222228 98 170 11.0 18.0 0.00 0.00 0.00 23 1011.8
20260830221723 98 170 11.0 18.0 0.00 0.00 0.00 23 1012.2
20260830221220 98 159 8.0 15.0 0.00 0.00 0.00 23 1012.0
20260830220715 98 191 9.0 17.0 0.00 0.00 0.00 23 1012.0
20260830220214 98 210 14.0 18.0 0.00 0.00 0.00 22 1011.9
20260830215713 99 180 9.0 14.0 0.00 0.00 0.00 22 1012.2
20260830215207 98 196 9.0 10.0 0.00 0.00 0.00 22 1012.1
20260830214702 98 196 9.0 10.0 0.00 0.00 0.00 22 1012.1
20260830214157 98 195 9.0 17.0 0.00 0.00 0.00 22 1012.1
20260830213656 98 155 6.0 19.0 0.00 0.00 0.00 22 1012.1
20260830213152 99 209 14.0 20.0 0.00 0.00 0.00 22 1012.1
20260830212648 98 190 5.0 13.0 0.00 0.00 0.00 23 1012.1
20260830212143 99 208 8.0 17.0 0.00 0.00 0.00 22 1012.2
20260830211638 98 200 6.0 6.0 0.00 0.00 0.00 24 1012.2
20260830211137 98 208 11.0 12.0 0.00 0.00 0.00 23 1012.5
20260830210633 99 220 9.0 20.0 0.00 0.00 0.00 23 1012.5
20260830210132 99 185 8.0 11.0 0.00 0.00 0.00 22 1012.6
20260830205629 98 221 19.0 21.0 0.00 0.00 0.00 23 1012.6
20260830205125 98 195 10.0 19.0 0.00 0.00 0.00 23 1012.7
20260830204624 98 227 15.0 18.0 0.00 0.00 0.00 23 1013.1
20260830204123 98 221 12.0 15.0 0.00 0.00 0.00 24 1012.9
20260830203620 97 192 12.0 15.0 0.00 0.00 0.00 24 1012.7
20260830203119 97 201 10.0 15.0 0.00 0.00 0.00 24 1013.1
20260830202619 98 220 13.0 21.0 0.00 0.00 0.00 24 1013.1
20260830202115 98 213 17.0 22.0 0.00 0.00 0.00 24 1013.0
20260830201614 98 224 4.0 7.0 0.00 0.00 0.00 26 1013.0
20260830201109 98 188 14.0 16.0 0.00 0.00 0.00 24 1013.0
20260830200605 98 221 16.0 22.0 0.00 0.00 0.00 25 1013.3
20260830200104 98 172 9.0 22.0 0.00 0.00 0.00 24 1013.5
20260830195559 98 173 8.0 16.0 0.00 0.00 0.00 24 1013.6
20260830195057 97 188 9.0 22.0 0.00 0.00 0.00 24 1013.6
20260830194557 97 235 16.0 22.0 0.00 0.00 0.00 24 1013.5
20260830194051 97 186 10.0 17.0 0.00 0.00 0.00 25 1013.5
20260830193550 97 206 10.0 21.0 0.00 0.00 0.00 24 1013.7
20260830193046 97 191 5.0 15.0 0.00 0.00 0.00 24 1013.5
20260830192541 98 209 13.0 24.0 0.00 0.00 0.00 25 1013.6
20260830192035 96 225 14.0 22.0 0.00 0.00 0.00 25 1013.7
20260830191531 97 220 14.0 21.0 0.00 0.00 0.00 25 1013.5
20260830191026 96 192 6.0 19.0 0.00 0.00 0.00 24 1013.6
20260830190521 96 194 15.0 19.0 0.00 0.00 0.00 25 1013.9
20260830190016 95 212 16.0 22.0 0.00 0.00 0.00 25 1013.6
20260830185510 96 196 13.0 20.0 0.00 0.00 0.00 24 1014.0
20260830185006 96 211 9.0 14.0 0.00 0.00 0.00 24 1014.3
20260830184505 95 194 11.0 20.0 0.00 0.00 0.00 25 1014.2
20260830183959 95 195 15.0 20.0 0.00 0.00 0.00 25 1014.2
20260830183454 95 193 11.0 22.0 0.00 0.00 0.00 26 1014.0
20260830182949 95 210 13.0 23.0 0.00 0.00 0.00 25 1014.1
20260830182444 94 178 12.0 22.0 0.00 0.00 0.00 26 1014.2
20260830181935 94 208 11.0 20.0 0.00 0.00 0.00 27 1014.5
20260830181431 95 196 8.0 22.0 0.00 0.00 0.00 27 1014.3
20260830180925 94 206 11.0 24.0 0.00 0.00 0.00 29 1014.6
20260830180425 94 220 9.0 19.0 0.00 0.00 0.00 27 1014.6
20260830175923 93 220 11.0 20.0 0.00 0.00 0.00 30 1014.8
20260830175417 94 191 14.0 23.0 0.00 0.00 0.00 29 1014.8
20260830174913 94 225 17.0 23.0 0.00 0.00 0.00 30 1014.7
20260830174408 93 226 9.0 19.0 0.00 0.00 0.00 31 1014.8
20260830173904 93 208 13.0 19.0 0.00 0.00 0.00 31 1014.9
20260830173359 93 202 14.0 20.0 0.00 0.00 0.00 32 1014.8
20260830172855 92 179 8.0 22.0 0.00 0.00 0.00 33 1015.0
20260830172351 93 202 15.0 22.0 0.00 0.00 0.00 32 1015.0
20260830171846 92 212 17.0 21.0 0.00 0.00 0.00 32 1015.0
20260830171342 93 203 11.0 15.0 0.00 0.00 0.00 31 1015.0
20260830170837 92 201 12.0 17.0 0.00 0.00 0.00 33 1015.1
20260830170336 92 203 15.0 23.0 0.00 0.00 0.00 32 1015.1
20260830165834 91 199 15.0 20.0 0.00 0.00 0.00 33 1015.2
20260830165331 91 218 13.0 25.0 0.00 0.00 0.00 35 1015.2
20260830164827 90 224 22.0 26.0 0.00 0.00 0.00 35 1015.1
20260830164323 90 216 10.0 18.0 0.00 0.00 0.00 36 1015.1
20260830163820 90 216 12.0 18.0 0.00 0.00 0.00 36 1015.2
20260830163314 89 224 21.0 23.0 0.00 0.00 0.00 37 1015.1
20260830162809 89 195 17.0 25.0 0.00 0.00 0.00 38 1015.2
20260830162306 88 220 17.0 25.0 0.00 0.00 0.00 38 1015.1
20260830161800 88 220 17.0 22.0 0.00 0.00 0.00 39 1015.4
20260830161254 88 214 15.0 24.0 0.00 0.00 0.00 39 1015.2
20260830160750 87 223 9.0 19.0 0.00 0.00 0.00 41 1015.4
20260830160249 87 220 12.0 18.0 0.00 0.00 0.00 42 1015.6
20260830155745 87 216 9.0 20.0 0.00 0.00 0.00 42 1015.2
20260830155241 86 214 14.0 20.0 0.00 0.00 0.00 42 1015.1
20260830154736 86 216 15.0 23.0 0.00 0.00 0.00 43 1015.5
20260830154232 86 211 10.0 20.0 0.00 0.00 0.00 44 1015.5
20260830153728 85 220 13.0 22.0 0.00 0.00 0.00 44 1015.4
20260830153224 85 210 11.0 20.0 0.00 0.00 0.00 43 1015.2
20260830152721 84 215 9.0 17.0 0.00 0.00 0.00 45 1015.2
20260830152216 84 223 16.0 21.0 0.00 0.00 0.00 45 1015.5
20260830151711 84 218 13.0 23.0 0.00 0.00 0.00 45 1015.5
20260830151210 83 226 15.0 23.0 0.00 0.00 0.00 46 1015.6
20260830150706 83 215 15.0 22.0 0.00 0.00 0.00 46 1015.6
20260830150206 83 220 13.0 22.0 0.00 0.00 0.00 46 1015.5
20260830145700 83 219 12.0 23.0 0.00 0.00 0.00 47 1015.6
20260830145155 82 222 16.0 22.0 0.00 0.00 0.00 47 1015.7
20260830144650 82 202 7.0 16.0 0.00 0.00 0.00 47 1015.5
20260830144146 82 219 13.0 19.0 0.00 0.00 0.00 48 1015.5
20260830143643 82 218 11.0 19.0 0.00 0.00 0.00 47 1015.7
20260830143140 82 213 5.0 13.0 0.00 0.00 0.00 48 1015.5
20260830142635 81 225 11.0 16.0 0.00 0.00 0.00 49 1015.5
20260830142130 81 200 6.0 14.0 0.00 0.00 0.00 50 1015.6
20260830141625 80 223 8.0 19.0 0.00 0.00 0.00 51 1015.5
20260830141120 80 216 12.0 20.0 0.00 0.00 0.00 51 1015.4
20260830140615 80 225 15.0 20.0 0.00 0.00 0.00 50 1015.4
20260830140110 79 222 9.0 16.0 0.00 0.00 0.00 51 1015.5
20260830135604 79 223 13.0 18.0 0.00 0.00 0.00 51 1015.5
20260830135100 78 224 10.0 19.0 0.00 0.00 0.00 52 1015.5
20260830134555 78 218 14.0 16.0 0.00 0.00 0.00 52 1015.4
20260830134050 77 218 9.0 17.0 0.00 0.00 0.00 53 1015.4
20260830133546 77 225 11.0 14.0 0.00 0.00 0.00 53 1015.2
20260830133040 77 217 10.0 15.0 0.00 0.00 0.00 53 1015.1
20260830132537 77 225 9.0 13.0 0.00 0.00 0.00 54 1015.2
20260830132032 76 223 10.0 14.0 0.00 0.00 0.00 54 1015.1
20260830131530 76 220 7.0 14.0 0.00 0.00 0.00 54 1015.1
20260830131026 76 214 6.0 15.0 0.00 0.00 0.00 55 1015.1
20260830130521 75 230 9.0 12.0 0.00 0.00 0.00 55 1014.8
20260830130016 75 222 8.0 14.0 0.00 0.00 0.00 56 1014.9
20260830125510 75 224 7.0 12.0 0.00 0.00 0.00 56 1015.0